Location: Cieszkowy
(50.3290°N, 20.5336°E)
Time: 00:24:09
(UTC+00:00)

MSX - Pass Details

Date: 15 June 2024
Orbit: 894 x 905 km, 99.0° (Epoch: 18 July)

Event Time Altitude Azimuth Distance (km) Brightness Sun altitude
Rises 01:19:26 0° 12° (NNE) 3,523 8.3 -8.2°
Reaches altitude 10° 01:21:53 10° 8° (N) 2,578 7.3 -8.0°
Maximum altitude 01:27:25 52° 294° (WNW) 1,106 4.3 -7.4°
Drops below altitude 10° 01:32:56 10° 219° (SW) 2,565 5.5 -6.9°
Enters shadow 01:33:21 - 218° (SW) 2,723 5.6 -6.8°
